Starlink 31957

operational
NORAD ID: 59926 Int'l Des: 2024-106 Owner: SPXS Country: US Constellation: starlink
LEOCIRCULAR

Starlink 31957について

説明を読み込み中...

リアルタイム位置

3D地球を読み込み中...

次回通過

高度履歴

Altitude vs Time

uPlot chart will show altitude changes over time

軌道要素

1 59926U 24106E 25351.60681501 .00001628 00000-0 68666-4 0 9990
2 59926 43.0017 75.7148 0001048 279.9723 80.1010 15.27583953 88028
Epoch: Dec 17, 2025 • Age: 8 hours

現在のステータス

高度 487.2 km
速度 7.62 km/s
衛星直下点 -20.72°S, 10.79°W
打ち上げ日 Jun 1, 2024
運用期間 1.5 years
タイプ internet

技術仕様

分類 Payload
質量 730.00 kg
乾燥質量 700.00 kg
総質量 730.00 kg
長さ 0.30 m
直径 4.10 m
スパン 29.00 m
形状 Box + pan
製造者 SPXS
バスタイプ Starlink V2M
フェーズステータス In Orbit
所有者/国 SPXS/US

大規模コンステレーション

Loading constellations...